FW2557 Weather Reports


time (UTC)temp
C
wind
direction
speed
KPH
gust
KPH
rain 1hr
cm
rain 24hr
cm
rain mn
cm
humidity
%
barometer
mb
20260906060027 27 336 12.9 29.0 0.00 0.00 0.00 48 1017.9
20260906054523 27 5 16.1 38.6 0.00 0.00 0.00 49 1017.9
20260906053021 26 260 12.9 22.5 0.00 0.00 0.00 54 1017.9
20260906051514 24 285 8.0 24.1 0.00 0.00 0.00 62 1017.6
20260906050010 17 242 3.2 6.4 0.00 0.00 0.00 85 1017.5
20260906044505 16 78 3.2 11.3 0.00 0.00 0.00 87 1017.4
20260906043002 15 34 8.0 24.1 0.00 0.00 0.00 90 1017.2
20260906041601 15 58 1.6 14.5 0.00 0.00 0.00 91 1017.1
20260906040100 14 130 3.2 11.3 0.00 0.00 0.00 94 1017.0
20260906034557 13 181 3.2 8.0 0.00 0.00 0.00 94 1017.0
20260906033100 13 178 4.8 14.5 0.00 0.00 0.00 94 1016.8
20260906031558 13 178 0.0 8.0 0.00 0.00 0.00 94 1017.0
20260906030055 13 265 1.6 4.8 0.00 0.00 0.00 93 1017.0
20260906024552 13 331 3.2 12.9 0.00 0.00 0.00 94 1017.1
20260906023050 13 69 1.6 6.4 0.00 0.00 0.00 94 1017.0
20260906021556 13 277 1.6 6.4 0.00 0.00 0.00 94 1017.0
20260906020046 13 275 0.0 0.0 0.00 0.00 0.00 94 1016.9
20260906014548 13 306 0.0 3.2 0.00 0.00 0.00 93 1016.9
20260906013043 13 293 1.6 3.2 0.00 0.00 0.00 93 1016.9
20260906011544 13 309 0.0 0.0 0.00 0.00 0.00 93 1016.9
20260906010040 14 309 0.0 0.0 0.00 0.00 0.00 93 1016.8
20260906004541 14 317 0.0 3.2 0.00 0.00 0.00 93 1016.8
20260906003037 14 271 3.2 4.8 0.00 0.00 0.00 93 1016.9
20260906001535 14 271 0.0 0.0 0.00 0.00 0.00 93 1016.8
20260906000034 14 271 0.0 0.0 0.00 0.00 0.00 93 1016.9
20260905234532 15 264 0.0 0.0 0.00 0.00 0.00 93 1016.9
20260905233030 15 199 0.0 0.0 0.00 0.00 0.00 93 1016.8
20260905231528 15 184 0.0 0.0 0.00 0.00 0.00 93 1016.9
20260905230026 15 265 0.0 0.0 0.00 0.00 0.00 93 1017.0
20260905224524 15 265 0.0 3.2 0.00 0.00 0.00 93 1016.9
20260905223023 15 305 0.0 4.8 0.00 0.00 0.00 92 1017.0
20260905221531 16 257 0.0 3.2 0.00 0.00 0.00 92 1016.9
20260905220017 16 273 0.0 3.2 0.00 0.00 0.00 92 1017.1
20260905214517 16 273 0.0 3.2 0.00 0.00 0.00 92 1017.0
20260905213024 16 273 0.0 0.0 0.00 0.00 0.00 92 1017.0
20260905211520 16 273 0.0 1.6 0.00 0.00 0.00 92 1017.1
20260905210024 17 261 0.0 0.0 0.00 0.00 0.00 91 1017.1
20260905204515 17 261 0.0 0.0 0.00 0.00 0.00 91 1017.0
20260905203014 17 261 0.0 0.0 0.00 0.00 0.00 91 1017.1
20260905201521 17 261 0.0 0.0 0.00 0.00 0.00 91 1017.0
20260905200013 17 261 0.0 0.0 0.00 0.00 0.00 90 1017.0
20260905194513 18 261 0.0 0.0 0.00 0.00 0.00 90 1017.0
20260905193013 18 261 0.0 0.0 0.00 0.00 0.00 89 1016.9
20260905191511 18 261 0.0 0.0 0.00 0.00 0.00 88 1016.8
20260905190011 19 232 0.0 0.0 0.00 0.00 0.00 87 1016.8
20260905184511 20 232 0.0 0.0 0.00 0.00 0.00 86 1016.8
20260905183011 20 313 0.0 1.6 0.00 0.00 0.00 83 1016.7
20260905181511 21 282 0.0 0.0 0.00 0.00 0.00 82 1016.5
20260905180011 22 5 0.0 4.8 0.00 0.00 0.00 79 1016.4
20260905174513 22 5 1.6 4.8 0.00 0.00 0.00 78 1016.3
20260905173018 22 294 0.0 3.2 0.00 0.00 0.00 76 1016.1
20260905171510 23 295 0.0 3.2 0.00 0.00 0.00 76 1016.0
20260905170008 24 295 1.6 3.2 0.00 0.00 0.00 74 1015.9
20260905164507 25 69 0.0 3.2 0.00 0.00 0.00 71 1015.7
20260905163005 26 305 0.0 3.2 0.00 0.00 0.00 66 1015.5
20260905161505 27 196 0.0 3.2 0.00 0.00 0.00 63 1015.5
20260905160003 29 173 1.6 4.8 0.00 0.00 0.00 55 1015.4
20260905154502 30 196 1.6 8.0 0.00 0.00 0.00 52 1015.3
20260905153100 31 194 3.2 8.0 0.00 0.00 0.00 44 1015.3
20260905151559 32 186 3.2 8.0 0.00 0.00 0.00 43 1015.4
20260905150058 32 182 4.8 9.7 0.00 0.00 0.00 42 1015.4
20260905144556 33 154 4.8 9.7 0.00 0.00 0.00 40 1015.3
20260905143054 33 182 6.4 11.3 0.00 0.00 0.00 38 1015.3
20260905141608 33 167 6.4 11.3 0.00 0.00 0.00 38 1015.4
20260905140054 33 94 3.2 9.7 0.00 0.00 0.00 38 1015.4
20260905134552 33 153 1.6 4.8 0.00 0.00 0.00 38 1015.5
20260905133047 33 167 3.2 14.5 0.00 0.00 0.00 37 1015.6
20260905131557 33 115 3.2 9.7 0.00 0.00 0.00 34 1015.7
20260905130044 33 112 1.6 11.3 0.00 0.00 0.00 35 1015.8
20260905124549 33 42 1.6 9.7 0.00 0.00 0.00 36 1015.8
20260905123050 34 300 1.6 6.4 0.00 0.00 0.00 34 1016.1
20260905121538 33 71 4.8 12.9 0.00 0.00 0.00 34 1016.3
20260905120036 33 141 1.6 6.4 0.00 0.00 0.00 35 1016.6
20260905114540 33 325 3.2 8.0 0.00 0.00 0.00 34 1016.7
20260905113029 32 350 1.6 14.5 0.00 0.00 0.00 35 1016.9
20260905111531 32 243 1.6 6.4 0.00 0.00 0.00 35 1016.9
20260905110026 32 54 3.2 11.3 0.00 0.00 0.00 35 1017.0
20260905104523 31 313 3.2 8.0 0.00 0.00 0.00 37 1017.1
20260905103029 31 9 4.8 9.7 0.00 0.00 0.00 38 1017.3
20260905101526 31 309 4.8 12.9 0.00 0.00 0.00 38 1017.5
20260905100016 30 303 3.2 9.7 0.00 0.00 0.00 39 1017.7
20260905094514 30 22 1.6 4.8 0.00 0.00 0.00 42 1017.9
20260905093011 30 214 3.2 4.8 0.00 0.00 0.00 41 1018.2
20260905091509 29 138 3.2 8.0 0.00 0.00 0.00 44 1018.3
20260905090105 29 5 3.2 8.0 0.00 0.00 0.00 43 1018.5
20260905084503 28 192 0.0 6.4 0.00 0.00 0.00 45 1018.6
20260905083057 28 196 0.0 6.4 0.00 0.00 0.00 45 1018.7
20260905081557 27 84 1.6 6.4 0.00 0.00 0.00 48 1018.8
20260905080050 27 103 0.0 4.8 0.00 0.00 0.00 49 1018.9
20260905074549 26 104 1.6 6.4 0.00 0.00 0.00 52 1018.9
20260905073043 25 107 0.0 3.2 0.00 0.00 0.00 55 1018.9
20260905071540 25 190 0.0 1.6 0.00 0.00 0.00 54 1019.0
20260905070037 24 200 0.0 3.2 0.00 0.00 0.00 58 1019.0
20260905064538 23 159 0.0 1.6 0.00 0.00 0.00 63 1019.0
20260905063032 22 51 1.6 3.2 0.00 0.00 0.00 63 1018.9
20260905061529 22 312 0.0 4.8 0.00 0.00 0.00 67 1019.0